Chehalis, WA
on Tuesday, January 15, 2013

Tuesday
Previous Day Next Day
Daily Summary
 ActualAverage (KOLM)Record (KOLM)
Temperature
Mean Temperature °F 40°F  
Max Temperature 41°F 46°F 58°F (1974)
Min Temperature 28°F 34°F 15°F (2007)
Degree Days
Heating Degree Days 30 25  
Month to date heating degree days 385  
Since 1 July heating degree days 2655  
Cooling Degree Days 0 0  
Month to date cooling degree days 0  
Year to date cooling degree days 0  
Moisture
Dew Point 32°F   
Average Humidity 96    
Maximum Humidity 100    
Minimum Humidity 81    
Precipitation
Precipitation 0.00 in 0.27 in 1.60 in (1961)
Month to date precipitation 3.89  
Year to date precipitation 3.89  
Wind
Wind Speed 1 mph   
Max Wind Speed 10 mph   
Max Gust Speed mph   
Visibility 3 miles   
Events Fog   

Key: T is trace of precipitation, MM is missing value
Source: NWS Daily Summary
Time(PST)TemperatureDew PointHumidity Pressure Visibility Wind DirectionWind SpeedGust SpeedPrecipitationEvents Conditions
12:15 AM 32.0°F 32.0°F 100% 30.58 in 5.0 miles Calm Calm - N/A   Overcast
12:35 AM 32.0°F 32.0°F 100% 30.58 in 3.0 miles Calm Calm - N/A   Overcast
12:55 AM 32.0°F 32.0°F 100% 30.58 in 2.5 miles Calm Calm - N/A   Overcast
1:15 AM 32.0°F 32.0°F 100% 30.59 in 2.5 miles Calm Calm - N/A   Overcast
1:35 AM 32.0°F 32.0°F 100% 30.60 in 2.5 miles Calm Calm - N/A   Overcast
1:55 AM 32.0°F 32.0°F 100% 30.61 in 3.0 miles Calm Calm - N/A   Overcast
2:15 AM 32.0°F 32.0°F 100% 30.62 in 3.0 miles NE 3.5 mph - N/A   Overcast
2:35 AM 32.0°F 32.0°F 100% 30.63 in 2.5 miles Calm Calm - N/A   Overcast
2:55 AM 32.0°F 32.0°F 100% 30.63 in 2.5 miles North 3.5 mph - N/A   Overcast
3:15 AM 32.0°F 32.0°F 100% 30.63 in 2.0 miles Calm Calm - N/A   Overcast
3:35 AM 32.0°F 32.0°F 100% 30.63 in 1.8 miles Calm Calm - N/A   Overcast
3:55 AM 32.0°F 32.0°F 100% 30.63 in 2.0 miles Calm Calm - N/A   Overcast
4:15 AM 32.0°F 32.0°F 100% 30.63 in 1.2 miles Calm Calm - N/A   Overcast
4:35 AM 32.0°F 32.0°F 100% 30.64 in 2.5 miles Calm Calm - N/A   Overcast
4:55 AM 32.0°F 32.0°F 100% 30.63 in 4.0 miles Calm Calm - N/A   Overcast
5:15 AM 32.0°F 32.0°F 100% 30.64 in 2.0 miles Calm Calm - N/A   Overcast
5:35 AM 32.0°F 32.0°F 100% 30.64 in 2.0 miles Calm Calm - N/A   Overcast
5:55 AM 32.0°F 32.0°F 100% 30.64 in 3.0 miles Calm Calm - N/A   Overcast
6:15 AM 32.0°F 32.0°F 100% 30.64 in 3.0 miles Calm Calm - N/A   Overcast
6:35 AM 32.0°F 32.0°F 100% 30.65 in 1.2 miles Calm Calm - N/A   Overcast
6:55 AM 32.0°F 32.0°F 100% 30.66 in 0.2 miles Calm Calm - N/A Fog Fog
7:15 AM 32.0°F 32.0°F 100% 30.66 in 0.5 miles Calm Calm - N/A Fog Fog
7:35 AM 32.0°F 32.0°F 100% 30.66 in 0.2 miles Calm Calm - N/A Fog Fog
7:55 AM 32.0°F 32.0°F 100% 30.67 in 0.5 miles Calm Calm - N/A Fog Fog
8:15 AM 32.0°F 32.0°F 100% 30.69 in 0.2 miles North 3.5 mph - N/A Fog Fog
8:35 AM 32.0°F 32.0°F 100% 30.69 in 0.2 miles Calm Calm - N/A Fog Fog
8:55 AM 32.0°F 32.0°F 100% 30.69 in 0.2 miles Calm Calm - N/A Fog Fog
9:15 AM 32.0°F 32.0°F 100% 30.69 in 0.2 miles NE 3.5 mph - N/A Fog Fog
9:35 AM 32.0°F 32.0°F 100% 30.70 in 0.2 miles North 3.5 mph - N/A Fog Fog
9:55 AM 33.8°F 32.0°F 93% 30.70 in 3.0 miles North 4.6 mph - N/A   Overcast
10:15 AM 33.8°F 32.0°F 93% 30.70 in 6.0 miles North 4.6 mph - N/A   Overcast
10:35 AM 33.8°F 32.0°F 93% 30.71 in 5.0 miles North 4.6 mph - N/A   Overcast
10:55 AM 35.6°F 32.0°F 87% 30.71 in 5.0 miles North 4.6 mph - N/A   Overcast
11:15 AM 35.6°F 33.8°F 93% 30.71 in 10.0 miles NNW 4.6 mph - N/A   Overcast
11:35 AM 35.6°F 33.8°F 93% 30.70 in 6.0 miles North 5.8 mph - N/A   Overcast
11:55 AM 35.6°F 33.8°F 93% 30.70 in 8.0 miles North 5.8 mph - N/A   Overcast
12:15 PM 37.4°F 33.8°F 87% 30.70 in 7.0 miles North 6.9 mph - N/A   Overcast
12:35 PM 37.4°F 33.8°F 87% 30.70 in 9.0 miles North 5.8 mph - N/A   Overcast
12:55 PM 37.4°F 33.8°F 87% 30.69 in 5.0 miles North 6.9 mph - N/A   Overcast
1:35 PM 39.2°F 35.6°F 87% 30.69 in 5.0 miles North 6.9 mph - N/A   Haze
1:55 PM 39.2°F 33.8°F 81% 30.69 in 8.0 miles NNE 10.4 mph - N/A   Overcast
2:15 PM 39.2°F 33.8°F 81% 30.69 in 5.0 miles NNE 6.9 mph - N/A   Haze
2:35 PM 41.0°F 35.6°F 81% 30.69 in 5.0 miles NNE 4.6 mph - N/A   Haze
2:55 PM 41.0°F 35.6°F 81% 30.69 in 5.0 miles NE 5.8 mph - N/A   Haze
3:15 PM 39.2°F 35.6°F 87% 30.69 in 9.0 miles NE 4.6 mph - N/A   Overcast
3:35 PM 39.2°F 35.6°F 87% 30.69 in 10.0 miles NE 4.6 mph - N/A   Mostly Cloudy
3:55 PM 39.2°F 35.6°F 87% 30.69 in 10.0 miles Calm Calm - N/A   Partly Cloudy
4:15 PM 37.4°F 35.6°F 93% 30.69 in 5.0 miles Calm Calm - N/A   Scattered Clouds
4:35 PM 35.6°F 33.8°F 93% 30.69 in 7.0 miles Calm Calm - N/A   Clear
4:55 PM 35.6°F 33.8°F 93% 30.69 in 5.0 miles Calm Calm - N/A   Clear
5:15 PM 33.8°F 32.0°F 93% 30.68 in 3.0 miles Calm Calm - N/A   Clear
5:35 PM 32.0°F 32.0°F 100% 30.68 in 5.0 miles Calm Calm - N/A   Clear
5:55 PM 32.0°F 32.0°F 100% 30.67 in 5.0 miles Calm Calm - N/A   Clear
6:15 PM 32.0°F 32.0°F 100% 30.68 in 4.0 miles Calm Calm - N/A   Clear
6:35 PM 32.0°F 32.0°F 100% 30.68 in 3.0 miles Calm Calm - N/A   Clear
6:55 PM 32.0°F 32.0°F 100% 30.69 in 4.0 miles South 3.5 mph - N/A   Scattered Clouds
7:15 PM 32.0°F 32.0°F 100% 30.69 in 0.2 miles South 3.5 mph - N/A Fog Light Freezing Fog
7:35 PM 32.0°F 32.0°F 100% 30.69 in 0.2 miles SW 3.5 mph - N/A Fog Light Freezing Fog
7:55 PM 32.0°F 30.2°F 93% 30.69 in 0.2 miles SW 3.5 mph - N/A Fog Light Freezing Fog
8:15 PM 32.0°F 30.2°F 93% 30.69 in 0.2 miles Calm Calm - N/A Fog Light Freezing Fog
8:35 PM 30.2°F 30.2°F 100% 30.70 in 0.2 miles Calm Calm - N/A Fog Light Freezing Fog
8:55 PM 30.2°F 30.2°F 100% 30.70 in 0.2 miles Calm Calm - N/A Fog Light Freezing Fog
9:15 PM 28.4°F 28.4°F 100% 30.70 in 0.2 miles Calm Calm - N/A Fog Light Freezing Fog
9:35 PM 28.4°F 28.4°F 100% 30.69 in 0.2 miles Calm Calm - N/A Fog Light Freezing Fog
10:15 PM 28.4°F 28.4°F 100% 30.69 in 0.2 miles Calm Calm - N/A Fog Light Freezing Fog
10:35 PM 28.4°F 28.4°F 100% 30.69 in 0.2 miles Calm Calm - N/A Fog Light Freezing Fog
10:55 PM 28.4°F 28.4°F 100% 30.69 in 0.2 miles Calm Calm - N/A Fog Light Freezing Fog
11:15 PM 28.4°F 28.4°F 100% 30.69 in 0.2 miles Calm Calm - N/A Fog Light Freezing Fog
11:35 PM 28.4°F 28.4°F 100% 30.69 in 0.2 miles Calm Calm - N/A Fog Light Freezing Fog
11:55 PM 28.4°F 28.4°F 100% 30.69 in 0.2 miles Calm Calm - N/A Fog Light Freezing Fog
Moon Phase
Jan. 15 Jan. 18 Jan. 26 Feb. 03 Feb. 10
Sunrise:07:51 AM (PST) Moon Rise:09:41 AM (PST)1/15
Sunset:04:51 PM (PST) Moon Set:10:08 PM (PST)1/15

Copyright © 2014 The Weather Underground, Inc.